Stündliche Wetter Juatuba

Heute, 3 März, Mittwoch

Zeit Temperatur Niederschläge Wind Luftdruck Luftfeuchtigkeit
00:00 +21°C° 0 mm 1 m/S 700 mmHg 91%
01:00 +20°C° 0 mm 1 m/S 700 mmHg 92%
02:00 +20°C° 0 mm 1 m/S 700 mmHg 93%
03:00 +20°C° 0 mm 1 m/S 700 mmHg 93%
04:00 +20°C° 0 mm 1 m/S 700 mmHg 93%
05:00 +20°C° 0 mm 1 m/S 701 mmHg 94%
06:00 +20°C° 0 mm 1 m/S 701 mmHg 94%
07:00 +20°C° 0 mm 2 m/S 701 mmHg 89%
08:00 +23°C° 0 mm 2 m/S 702 mmHg 84%
09:00 +25°C° 0 mm 2 m/S 703 mmHg 79%
10:00 +26°C° 0 mm 2 m/S 703 mmHg 73%
11:00 +27°C° 0 mm 3 m/S 703 mmHg 68%
12:00 +29°C° 0 mm 3 m/S 703 mmHg 63%
13:00 +29°C° 0 mm 3 m/S 702 mmHg 63%
14:00 +29°C° 0 mm 3 m/S 701 mmHg 64%
15:00 +29°C° 0 mm 2 m/S 700 mmHg 65%
16:00 +28°C° 0 mm 2 m/S 700 mmHg 69%
17:00 +26°C° 0 mm 1 m/S 700 mmHg 74%
18:00 +25°C° 0 mm 1 m/S 699 mmHg 79%
19:00 +24°C° 0 mm 1 m/S 700 mmHg 81%
20:00 +23°C° 0 mm 1 m/S 700 mmHg 84%
21:00 +22°C° 0 mm 1 m/S 700 mmHg 86%
22:00 +22°C° 0.1 mm 1 m/S 700 mmHg 87%
23:00 +22°C° 0.1 mm 1 m/S 701 mmHg 88%

Morgen, 4 März, Donnerstag

Zeit Temperatur Niederschläge Wind Luftdruck Luftfeuchtigkeit
00:00 +22°C° 0.1 mm 1 m/S 701 mmHg 88%
01:00 +21°C° 0 mm 1 m/S 700 mmHg 90%
02:00 +21°C° 0 mm 1 m/S 700 mmHg 91%
03:00 +20°C° 0 mm 1 m/S 700 mmHg 92%
04:00 +20°C° 0 mm 1 m/S 700 mmHg 93%
05:00 +20°C° 0 mm 1 m/S 700 mmHg 93%
06:00 +20°C° 0 mm 1 m/S 700 mmHg 94%
07:00 +21°C° 0 mm 1 m/S 701 mmHg 89%
08:00 +23°C° 0 mm 1 m/S 701 mmHg 84%
09:00 +25°C° 0 mm 1 m/S 702 mmHg 79%
10:00 +26°C° 0.1 mm 2 m/S 702 mmHg 75%
11:00 +27°C° 0.1 mm 2 m/S 702 mmHg 70%
12:00 +28°C° 0.1 mm 2 m/S 701 mmHg 66%
13:00 +28°C° 0.2 mm 2 m/S 701 mmHg 67%
14:00 +29°C° 0.2 mm 2 m/S 700 mmHg 67%
15:00 +29°C° 0.2 mm 2 m/S 699 mmHg 67%
16:00 +27°C° 0.2 mm 2 m/S 699 mmHg 72%
17:00 +26°C° 0.2 mm 1 m/S 698 mmHg 77%
18:00 +23°C° 0.2 mm 0 m/S 698 mmHg 82%
19:00 +22°C° 0.2 mm 0 m/S 698 mmHg 83%
20:00 +21°C° 0.2 mm 0 m/S 699 mmHg 85%
21:00 +20°C° 0.2 mm 0 m/S 699 mmHg 87%
22:00 +22°C° 0.1 mm 1 m/S 699 mmHg 88%
23:00 +22°C° 0.1 mm 1 m/S 699 mmHg 89%

übermorgen, 5 März, Freitag

Zeit Temperatur Niederschläge Wind Luftdruck Luftfeuchtigkeit
00:00 +21°C° 0.1 mm 1 m/S 698 mmHg 90%
01:00 +21°C° 0 mm 1 m/S 698 mmHg 91%
02:00 +20°C° 0 mm 1 m/S 698 mmHg 92%
03:00 +20°C° 0 mm 1 m/S 698 mmHg 92%
04:00 +20°C° 0 mm 1 m/S 698 mmHg 92%
05:00 +20°C° 0 mm 1 m/S 698 mmHg 92%
06:00 +20°C° 0 mm 1 m/S 698 mmHg 92%
07:00 +21°C° 0 mm 1 m/S 698 mmHg 87%
08:00 +23°C° 0 mm 1 m/S 699 mmHg 83%
09:00 +24°C° 0 mm 2 m/S 699 mmHg 78%
10:00 +26°C° 0 mm 2 m/S 699 mmHg 73%
11:00 +27°C° 0 mm 3 m/S 699 mmHg 68%
12:00 +28°C° 0 mm 3 m/S 699 mmHg 63%
13:00 +29°C° 0 mm 3 m/S 698 mmHg 63%
14:00 +29°C° 0 mm 3 m/S 698 mmHg 62%
15:00 +29°C° 0 mm 3 m/S 697 mmHg 61%
16:00 +28°C° 0 mm 2 m/S 697 mmHg 66%
17:00 +26°C° 0 mm 2 m/S 696 mmHg 71%
18:00 +25°C° 0 mm 1 m/S 696 mmHg 76%
19:00 +24°C° 0 mm 1 m/S 696 mmHg 78%
20:00 +23°C° 0 mm 1 m/S 697 mmHg 80%
21:00 +20°C° 0 mm 0 m/S 697 mmHg 82%
22:00 +20°C° 0 mm 0 m/S 697 mmHg 83%
23:00 +20°C° 0 mm 0 m/S 697 mmHg 84%

6 März, Samstag

Zeit Temperatur Niederschläge Wind Luftdruck Luftfeuchtigkeit
00:00 +20°C° 0 mm 0 m/S 697 mmHg 85%
01:00 +20°C° 0.2 mm 0 m/S 697 mmHg 87%
02:00 +19°C° 0.2 mm 0 m/S 697 mmHg 89%
03:00 +19°C° 0.2 mm 0 m/S 697 mmHg 91%
04:00 +21°C° 0.1 mm 1 m/S 697 mmHg 92%
05:00 +21°C° 0.1 mm 1 m/S 697 mmHg 92%
06:00 +21°C° 0.1 mm 1 m/S 697 mmHg 93%
07:00 +22°C° 0 mm 1 m/S 697 mmHg 89%
08:00 +24°C° 0 mm 2 m/S 698 mmHg 85%
09:00 +25°C° 0 mm 2 m/S 698 mmHg 82%
10:00 +26°C° 0.4 mm 3 m/S 698 mmHg 79%
11:00 +27°C° 0.4 mm 4 m/S 698 mmHg 76%
12:00 +28°C° 0.4 mm 4 m/S 698 mmHg 73%
13:00 +28°C° 0.5 mm 4 m/S 697 mmHg 73%
14:00 +28°C° 0.5 mm 4 m/S 697 mmHg 73%
15:00 +29°C° 0.5 mm 4 m/S 696 mmHg 73%
16:00 +27°C° 0.9 mm 3 m/S 696 mmHg 78%
17:00 +26°C° 0.9 mm 2 m/S 696 mmHg 83%
18:00 +25°C° 0.9 mm 2 m/S 696 mmHg 88%
19:00 +24°C° 0.2 mm 1 m/S 696 mmHg 89%
20:00 +23°C° 0.2 mm 1 m/S 697 mmHg 89%
21:00 +23°C° 0.2 mm 1 m/S 697 mmHg 90%
22:00 +21°C° 0.2 mm 0 m/S 697 mmHg 91%
23:00 +20°C° 0.2 mm 0 m/S 697 mmHg 91%

7 März, Sonntag

Zeit Temperatur Niederschläge Wind Luftdruck Luftfeuchtigkeit
00:00 +20°C° 0.2 mm 0 m/S 697 mmHg 91%
01:00 +20°C° 0.1 mm 0 m/S 697 mmHg 92%
02:00 +20°C° 0.1 mm 0 m/S 697 mmHg 92%
03:00 +19°C° 0.1 mm 0 m/S 697 mmHg 93%
04:00 +19°C° 0 mm 0 m/S 697 mmHg 93%
05:00 +19°C° 0 mm 0 m/S 697 mmHg 93%
06:00 +19°C° 0 mm 0 m/S 697 mmHg 94%
07:00 +22°C° 0.1 mm 1 m/S 698 mmHg 89%
08:00 +24°C° 0.1 mm 1 m/S 698 mmHg 84%
09:00 +26°C° 0.1 mm 2 m/S 699 mmHg 80%
10:00 +27°C° 0.7 mm 3 m/S 699 mmHg 78%
11:00 +27°C° 0.7 mm 3 m/S 699 mmHg 77%
12:00 +28°C° 0.7 mm 4 m/S 698 mmHg 76%
13:00 +28°C° 1.5 mm 4 m/S 698 mmHg 77%
14:00 +28°C° 1.5 mm 3 m/S 698 mmHg 79%
15:00 +28°C° 1.5 mm 3 m/S 697 mmHg 80%
16:00 +27°C° 1.3 mm 2 m/S 697 mmHg 83%
17:00 +26°C° 1.3 mm 2 m/S 697 mmHg 86%
18:00 +25°C° 1.3 mm 1 m/S 697 mmHg 89%
19:00 +24°C° 1.3 mm 1 m/S 697 mmHg 90%
20:00 +22°C° 1.3 mm 0 m/S 698 mmHg 91%
21:00 +21°C° 1.3 mm 0 m/S 698 mmHg 91%
22:00 +21°C° 1.3 mm 0 m/S 698 mmHg 93%
23:00 +23°C° 1.3 mm 1 m/S 698 mmHg 94%

8 März, Montag

Zeit Temperatur Niederschläge Wind Luftdruck Luftfeuchtigkeit
00:00 +22°C° 1.3 mm 1 m/S 698 mmHg 96%
01:00 +22°C° 0.6 mm 1 m/S 698 mmHg 96%
02:00 +22°C° 0.6 mm 1 m/S 698 mmHg 96%
03:00 +22°C° 0.6 mm 1 m/S 697 mmHg 97%
04:00 +22°C° 0.1 mm 1 m/S 697 mmHg 97%
05:00 +21°C° 0.1 mm 1 m/S 698 mmHg 97%
06:00 +21°C° 0.1 mm 1 m/S 698 mmHg 97%
07:00 +22°C° 0 mm 1 m/S 698 mmHg 93%
08:00 +24°C° 0 mm 1 m/S 699 mmHg 90%
09:00 +25°C° 0 mm 1 m/S 699 mmHg 86%
10:00 +26°C° 0.4 mm 2 m/S 699 mmHg 84%
11:00 +27°C° 0.4 mm 3 m/S 699 mmHg 81%
12:00 +28°C° 0.4 mm 3 m/S 699 mmHg 78%
13:00 +28°C° 0.7 mm 3 m/S 698 mmHg 78%
14:00 +28°C° 0.7 mm 3 m/S 698 mmHg 79%
15:00 +28°C° 0.7 mm 3 m/S 697 mmHg 79%
16:00 +27°C° 0.9 mm 2 m/S 697 mmHg 83%
17:00 +25°C° 0.9 mm 2 m/S 697 mmHg 86%
18:00 +24°C° 0.9 mm 1 m/S 697 mmHg 90%
19:00 +24°C° 0.7 mm 1 m/S 697 mmHg 91%
20:00 +23°C° 0.7 mm 1 m/S 697 mmHg 92%
21:00 +23°C° 0.7 mm 1 m/S 698 mmHg 93%
22:00 +23°C° 0.2 mm 1 m/S 698 mmHg 93%
23:00 +22°C° 0.2 mm 1 m/S 698 mmHg 94%
Mehr zeigen

Wir brauchen deine Erlaubnis

Meteoprog und unser Service Anbieter werden persönliche Daten aufbewahren, so wie Cookies, Geräte Bezeichnung oder ähnliche Technologien von deinem Gerät und Prozess, so wie Persönliche Daten Inhalte und Werbungen, genauso wie social Media und den Verkehr zu analysieren.

  • Aufbewahrung und/oder Zugang zu deiner Geräte Informationen.

    Cookies, Geräte Bezeichnung oder andere Informationen, können aufbewahrt oder Zugang zu deinem Gerät erhalten, für den Grund, der oben angegeben wird.

  • Personalisierte Werbung und Inhalte, Messungen, Einblick in das Publikum und Produkt Entwicklung.

    Werbungen und Inhalte können personalisiert werden, basierend auf ein Profil. Mehr Daten können besser personalisierte Werbungen und Inhalte hinzufügen. Werbung und Inhalte können gezeigt und gemessen werden. Einblicke über das Publikum, welche die Werbung gesehen haben und den Inhalt, können abgeleitet werden. So wie Daten können genutzt werden, um es zu verbessern oder die Benutzer Erfahrung zu verbessern das System und die Software.

Wenn du “Ich stimme zu” klickst, erlaubst du uns, die Cookies zu benutzen die Geräte Bezeichnung, den Web oder ähnliche Technologien zu benutzen. Deine Settings, können in deinem Gerät bei deinem Browser geändert werden.

Für den bestimmten Zweck, berechtigten Interessen beruhen darauf, mehr als auf den Inhalt. Du kannst mehr darüber in unseren Privaten und Cookie Politik lesen.